When you browse on this site, cookies collect data to enhance your experience and personalize the content and advertising you see.
Visit our Privacy Policy to learn more. By continuing to use the site, you agree to this use of cookies and data.
  • en France
  • Liste des pays
  • À 7 jours
  • Température de l'eau
  • Carte satellitaire
  • Carte météo
  • Widgets météo
  • user-avatar
    Se connecter

    Météo par heure à Kyoustendil

    Ce jour, 23 Mars, Samedi

    Heure Température Précipitation Vent Pression Humidité
    00:00 -1°C° 0 mm 2 m/s 628 mmHg 65%
    01:00 -1°C° 0 mm 2 m/s 627 mmHg 64%
    02:00 -2°C° 0 mm 2 m/s 627 mmHg 65%
    03:00 -2°C° 0 mm 2 m/s 627 mmHg 66%
    04:00 -2°C° 0 mm 2 m/s 627 mmHg 67%
    05:00 0°C° 0 mm 1 m/s 627 mmHg 64%
    06:00 +1°C° 0 mm 1 m/s 627 mmHg 61%
    07:00 +1°C° 0 mm 2 m/s 628 mmHg 57%
    08:00 +3°C° 0 mm 2 m/s 628 mmHg 50%
    09:00 +5°C° 0 mm 2 m/s 629 mmHg 44%
    10:00 +7°C° 0 mm 2 m/s 629 mmHg 37%
    11:00 +8°C° 0 mm 2 m/s 629 mmHg 36%
    12:00 +9°C° 0 mm 2 m/s 629 mmHg 35%
    13:00 +11°C° 0 mm 3 m/s 629 mmHg 33%
    14:00 +10°C° 0 mm 3 m/s 629 mmHg 35%
    15:00 +10°C° 0 mm 3 m/s 628 mmHg 36%
    16:00 +10°C° 0 mm 4 m/s 628 mmHg 38%
    17:00 +8°C° 0 mm 3 m/s 627 mmHg 46%
    18:00 +5°C° 0 mm 3 m/s 627 mmHg 55%
    19:00 +4°C° 0 mm 2 m/s 626 mmHg 63%
    20:00 +3°C° 0 mm 2 m/s 626 mmHg 68%
    21:00 +2°C° 0 mm 2 m/s 626 mmHg 73%
    22:00 +2°C° 0 mm 2 m/s 626 mmHg 78%
    23:00 +1°C° 0 mm 2 m/s 626 mmHg 81%

    Demain, 24 Mars, Dimanche

    Heure Température Précipitation Vent Pression Humidité
    00:00 +1°C° 0 mm 2 m/s 626 mmHg 84%
    01:00 +1°C° 0 mm 1 m/s 626 mmHg 86%
    02:00 +1°C° 0 mm 1 m/s 626 mmHg 87%
    03:00 +1°C° 0 mm 1 m/s 626 mmHg 88%
    04:00 0°C° 0 mm 1 m/s 626 mmHg 89%
    05:00 +1°C° 0 mm 1 m/s 626 mmHg 85%
    06:00 +2°C° 0 mm 1 m/s 627 mmHg 81%
    07:00 +3°C° 0 mm 1 m/s 627 mmHg 77%
    08:00 +5°C° 0 mm 1 m/s 627 mmHg 68%
    09:00 +5°C° 0 mm 2 m/s 628 mmHg 59%
    10:00 +7°C° 0 mm 2 m/s 628 mmHg 50%
    11:00 +8°C° 0 mm 2 m/s 628 mmHg 45%
    12:00 +9°C° 0 mm 3 m/s 628 mmHg 41%
    13:00 +10°C° 0 mm 3 m/s 628 mmHg 36%
    14:00 +10°C° 0 mm 3 m/s 628 mmHg 36%
    15:00 +10°C° 0 mm 3 m/s 627 mmHg 36%
    16:00 +10°C° 0 mm 2 m/s 627 mmHg 37%
    17:00 +8°C° 0 mm 2 m/s 626 mmHg 43%
    18:00 +7°C° 0 mm 1 m/s 626 mmHg 48%
    19:00 +5°C° 0 mm 1 m/s 625 mmHg 54%
    20:00 +4°C° 0 mm 1 m/s 625 mmHg 55%
    21:00 +4°C° 0 mm 1 m/s 625 mmHg 56%
    22:00 +2°C° 0 mm 0 m/s 624 mmHg 56%
    23:00 +2°C° 0 mm 0 m/s 624 mmHg 57%

    Après-demain, 25 Mars, Lundi

    Heure Température Précipitation Vent Pression Humidité
    00:00 +1°C° 0 mm 0 m/s 624 mmHg 58%
    01:00 +1°C° 0 mm 0 m/s 624 mmHg 60%
    02:00 +2°C° 0 mm 1 m/s 623 mmHg 63%
    03:00 +1°C° 0 mm 1 m/s 623 mmHg 66%
    04:00 +1°C° 0 mm 1 m/s 622 mmHg 69%
    05:00 +2°C° 0 mm 1 m/s 622 mmHg 68%
    06:00 +2°C° 0 mm 1 m/s 623 mmHg 67%
    07:00 +3°C° 0 mm 1 m/s 623 mmHg 65%
    08:00 +5°C° 0 mm 1 m/s 623 mmHg 57%
    09:00 +7°C° 0 mm 1 m/s 624 mmHg 49%
    10:00 +8°C° 0 mm 2 m/s 624 mmHg 41%
    11:00 +9°C° 0 mm 2 m/s 624 mmHg 38%
    12:00 +10°C° 0 mm 2 m/s 623 mmHg 35%
    13:00 +12°C° 0 mm 2 m/s 623 mmHg 32%
    14:00 +12°C° 0 mm 2 m/s 623 mmHg 32%
    15:00 +12°C° 0 mm 2 m/s 622 mmHg 32%
    16:00 +12°C° 0 mm 2 m/s 622 mmHg 32%
    17:00 +10°C° 0 mm 1 m/s 621 mmHg 38%
    18:00 +8°C° 0 mm 1 m/s 620 mmHg 44%
    19:00 +6°C° 0 mm 1 m/s 620 mmHg 50%
    20:00 +5°C° 0 mm 1 m/s 620 mmHg 55%
    21:00 +5°C° 0 mm 1 m/s 620 mmHg 61%
    22:00 +4°C° 0 mm 1 m/s 619 mmHg 66%
    23:00 +4°C° 0 mm 1 m/s 619 mmHg 71%

    26 Mars, Mardi

    Heure Température Précipitation Vent Pression Humidité
    00:00 +3°C° 0 mm 1 m/s 619 mmHg 76%
    01:00 +3°C° 0 mm 1 m/s 619 mmHg 81%
    02:00 +3°C° 0 mm 1 m/s 619 mmHg 81%
    03:00 +3°C° 0 mm 1 m/s 620 mmHg 81%
    04:00 +2°C° 0 mm 1 m/s 620 mmHg 81%
    05:00 +3°C° 0 mm 1 m/s 620 mmHg 79%
    06:00 +2°C° 0 mm 2 m/s 621 mmHg 76%
    07:00 +2°C° 0 mm 2 m/s 621 mmHg 74%
    08:00 +1°C° 0.1 mm 3 m/s 622 mmHg 70%
    09:00 +2°C° 0.1 mm 3 m/s 622 mmHg 66%
    10:00 +2°C° 0.1 mm 3 m/s 623 mmHg 62%
    11:00 +3°C° 0.1 mm 4 m/s 623 mmHg 60%
    12:00 +3°C° 0.1 mm 4 m/s 623 mmHg 59%
    13:00 +3°C° 0.1 mm 4 m/s 623 mmHg 57%
    14:00 +1°C° 0 mm 4 m/s 623 mmHg 58%
    15:00 +1°C° 0 mm 4 m/s 623 mmHg 59%
    16:00 0°C° 0 mm 4 m/s 623 mmHg 60%
    17:00 0°C° 0 mm 3 m/s 623 mmHg 61%
    18:00 0°C° 0 mm 3 m/s 624 mmHg 63%
    19:00 -1°C° 0 mm 2 m/s 624 mmHg 64%
    20:00 -2°C° 0 mm 2 m/s 624 mmHg 62%
    21:00 -2°C° 0 mm 2 m/s 624 mmHg 60%
    22:00 -3°C° 0 mm 2 m/s 624 mmHg 58%
    23:00 -3°C° 0 mm 2 m/s 624 mmHg 59%

    27 Mars, Mercredi

    Heure Température Précipitation Vent Pression Humidité
    00:00 -2°C° 0 mm 1 m/s 624 mmHg 60%
    01:00 -2°C° 0 mm 1 m/s 624 mmHg 61%
    02:00 -2°C° 0 mm 1 m/s 624 mmHg 63%
    03:00 -3°C° 0 mm 1 m/s 624 mmHg 65%
    04:00 -3°C° 0 mm 1 m/s 624 mmHg 67%
    05:00 -2°C° 0 mm 1 m/s 625 mmHg 66%
    06:00 -4°C° 0 mm 2 m/s 625 mmHg 65%
    07:00 -3°C° 0 mm 2 m/s 626 mmHg 63%
    08:00 -2°C° 0 mm 2 m/s 626 mmHg 60%
    09:00 +1°C° 0 mm 2 m/s 627 mmHg 56%
    10:00 +2°C° 0 mm 2 m/s 628 mmHg 53%
    11:00 +3°C° 0.1 mm 2 m/s 628 mmHg 53%
    12:00 +3°C° 0.1 mm 2 m/s 628 mmHg 53%
    13:00 +5°C° 0.1 mm 1 m/s 628 mmHg 53%
    14:00 +4°C° 0.3 mm 1 m/s 627 mmHg 56%
    15:00 +4°C° 0.3 mm 1 m/s 627 mmHg 59%
    16:00 +4°C° 0.3 mm 1 m/s 627 mmHg 62%
    17:00 +3°C° 0.6 mm 1 m/s 627 mmHg 67%
    18:00 +2°C° 0.6 mm 1 m/s 627 mmHg 71%
    19:00 +2°C° 0.6 mm 1 m/s 627 mmHg 76%
    20:00 +1°C° 0.4 mm 1 m/s 627 mmHg 78%
    21:00 +1°C° 0.4 mm 1 m/s 627 mmHg 81%
    22:00 +1°C° 0.4 mm 1 m/s 627 mmHg 83%
    23:00 0°C° 0.6 mm 1 m/s 627 mmHg 84%

    28 Mars, Jeudi

    Heure Température Précipitation Vent Pression Humidité
    00:00 0°C° 0.6 mm 1 m/s 627 mmHg 86%
    01:00 0°C° 0.6 mm 1 m/s 627 mmHg 87%
    02:00 -1°C° 0.4 mm 1 m/s 627 mmHg 88%
    03:00 -1°C° 0.4 mm 1 m/s 627 mmHg 88%
    04:00 -1°C° 0.4 mm 1 m/s 627 mmHg 88%
    05:00 -1°C° 0.2 mm 1 m/s 627 mmHg 86%
    06:00 -1°C° 0.2 mm 1 m/s 627 mmHg 84%
    07:00 -3°C° 0.2 mm 2 m/s 627 mmHg 82%
    08:00 -2°C° 0.1 mm 2 m/s 628 mmHg 77%
    09:00 -1°C° 0.1 mm 2 m/s 628 mmHg 72%
    10:00 +1°C° 0.1 mm 2 m/s 628 mmHg 67%
    11:00 +2°C° 0.1 mm 2 m/s 628 mmHg 62%
    12:00 +2°C° 0.1 mm 2 m/s 629 mmHg 57%
    13:00 +2°C° 0.1 mm 3 m/s 629 mmHg 52%
    14:00 +2°C° 0 mm 3 m/s 628 mmHg 51%
    15:00 +1°C° 0 mm 4 m/s 628 mmHg 51%
    16:00 +1°C° 0 mm 4 m/s 628 mmHg 50%
    17:00 -1°C° 0 mm 4 m/s 628 mmHg 56%
    18:00 -2°C° 0 mm 4 m/s 627 mmHg 62%
    19:00 -4°C° 0 mm 3 m/s 627 mmHg 68%
    20:00 -5°C° 0 mm 3 m/s 627 mmHg 71%
    21:00 -5°C° 0 mm 3 m/s 627 mmHg 75%
    22:00 -5°C° 0 mm 2 m/s 627 mmHg 78%
    23:00 -6°C° 0 mm 2 m/s 627 mmHg 78%
    Voir plus